When you browse on this site, cookies collect data to enhance your experience and personalize the content and advertising you see.
Visit our Privacy Policy to learn more. By continuing to use the site, you agree to this use of cookies and data.
  • In Hungary
  • List of Countries
  • For 7 days
  • Water Temperature
  • Satellite Maps
  • Weather Map
  • News
  • Weather Widgets
  • user-avatar
    Login

    Hourly Weather Ibipora

    Today, 22 January, Tuesday

    Time Temperature Precipitation Wind Pressure Humidity
    00:00 +26°C° 0.1 mm 1 mps 724 mmHg 90%
    01:00 +25°C° 0 mm 1 mps 724 mmHg 91%
    02:00 +25°C° 0 mm 1 mps 724 mmHg 91%
    03:00 +23°C° 0 mm 0 mps 724 mmHg 92%
    04:00 +22°C° 0 mm 0 mps 724 mmHg 92%
    05:00 +22°C° 0 mm 0 mps 724 mmHg 93%
    06:00 +22°C° 0 mm 0 mps 724 mmHg 93%
    07:00 +24°C° 0 mm 0 mps 724 mmHg 86%
    08:00 +27°C° 0 mm 0 mps 725 mmHg 79%
    09:00 +29°C° 0 mm 0 mps 726 mmHg 72%
    10:00 +32°C° 0 mm 1 mps 726 mmHg 66%
    11:00 +33°C° 0 mm 1 mps 726 mmHg 59%
    12:00 +35°C° 0 mm 2 mps 726 mmHg 53%
    13:00 +36°C° 0.1 mm 2 mps 725 mmHg 54%
    14:00 +36°C° 0.1 mm 3 mps 725 mmHg 54%
    15:00 +36°C° 0.1 mm 3 mps 724 mmHg 54%
    16:00 +35°C° 0.1 mm 2 mps 724 mmHg 59%
    17:00 +34°C° 0.1 mm 2 mps 724 mmHg 64%
    18:00 +32°C° 0.1 mm 2 mps 723 mmHg 69%
    19:00 +31°C° 0 mm 1 mps 723 mmHg 73%
    20:00 +29°C° 0 mm 1 mps 724 mmHg 77%
    21:00 +27°C° 0 mm 1 mps 724 mmHg 81%
    22:00 +27°C° 0 mm 1 mps 724 mmHg 83%
    23:00 +26°C° 0 mm 1 mps 724 mmHg 85%

    Tomorrow, 23 January, Wednesday

    Time Temperature Precipitation Wind Pressure Humidity
    00:00 +26°C° 0 mm 1 mps 724 mmHg 87%
    01:00 +25°C° 0 mm 1 mps 724 mmHg 89%
    02:00 +25°C° 0 mm 1 mps 724 mmHg 91%
    03:00 +25°C° 0 mm 2 mps 723 mmHg 93%
    04:00 +24°C° 0 mm 2 mps 724 mmHg 94%
    05:00 +24°C° 0 mm 2 mps 724 mmHg 96%
    06:00 +24°C° 0 mm 2 mps 724 mmHg 97%
    07:00 +25°C° 0 mm 2 mps 724 mmHg 91%
    08:00 +27°C° 0 mm 2 mps 725 mmHg 84%
    09:00 +29°C° 0 mm 2 mps 726 mmHg 78%
    10:00 +31°C° 0 mm 2 mps 725 mmHg 71%
    11:00 +34°C° 0 mm 1 mps 725 mmHg 64%
    12:00 +36°C° 0 mm 1 mps 725 mmHg 56%
    13:00 +36°C° 0 mm 1 mps 725 mmHg 54%
    14:00 +36°C° 0 mm 1 mps 724 mmHg 52%
    15:00 +36°C° 0 mm 1 mps 724 mmHg 49%
    16:00 +35°C° 0.2 mm 1 mps 723 mmHg 57%
    17:00 +34°C° 0.2 mm 1 mps 723 mmHg 65%
    18:00 +32°C° 0.2 mm 1 mps 722 mmHg 73%
    19:00 +30°C° 0.8 mm 1 mps 723 mmHg 78%
    20:00 +29°C° 0.8 mm 1 mps 723 mmHg 82%
    21:00 +27°C° 0.8 mm 2 mps 723 mmHg 86%
    22:00 +26°C° 0.6 mm 1 mps 723 mmHg 88%
    23:00 +26°C° 0.6 mm 1 mps 723 mmHg 90%

    Day after tomorrow, 24 January, Thursday

    Time Temperature Precipitation Wind Pressure Humidity
    00:00 +25°C° 0.6 mm 1 mps 723 mmHg 91%
    01:00 +25°C° 0 mm 2 mps 723 mmHg 93%
    02:00 +25°C° 0 mm 2 mps 723 mmHg 94%
    03:00 +24°C° 0 mm 2 mps 722 mmHg 95%
    04:00 +24°C° 0 mm 2 mps 722 mmHg 95%
    05:00 +24°C° 0 mm 2 mps 722 mmHg 96%
    06:00 +24°C° 0 mm 2 mps 723 mmHg 96%
    07:00 +26°C° 0 mm 2 mps 723 mmHg 90%
    08:00 +27°C° 0 mm 2 mps 724 mmHg 85%
    09:00 +29°C° 0 mm 2 mps 725 mmHg 79%
    10:00 +30°C° 0.9 mm 2 mps 724 mmHg 73%
    11:00 +32°C° 0.9 mm 2 mps 724 mmHg 68%
    12:00 +34°C° 0.9 mm 2 mps 724 mmHg 62%
    13:00 +35°C° 0.2 mm 2 mps 724 mmHg 61%
    14:00 +35°C° 0.2 mm 2 mps 723 mmHg 59%
    15:00 +34°C° 0.2 mm 1 mps 723 mmHg 57%
    16:00 +32°C° 2.7 mm 2 mps 722 mmHg 66%
    17:00 +30°C° 2.7 mm 3 mps 722 mmHg 75%
    18:00 +28°C° 2.7 mm 4 mps 722 mmHg 84%
    19:00 +27°C° 1.8 mm 3 mps 723 mmHg 87%
    20:00 +26°C° 1.8 mm 3 mps 723 mmHg 91%
    21:00 +25°C° 1.8 mm 2 mps 724 mmHg 94%
    22:00 +25°C° 0.2 mm 2 mps 724 mmHg 94%
    23:00 +24°C° 0.2 mm 2 mps 724 mmHg 95%

    25 January, Friday

    Time Temperature Precipitation Wind Pressure Humidity
    00:00 +24°C° 0.2 mm 3 mps 724 mmHg 95%
    01:00 +24°C° 0 mm 3 mps 723 mmHg 95%
    02:00 +22°C° 0 mm 3 mps 723 mmHg 95%
    03:00 +22°C° 0 mm 3 mps 722 mmHg 96%
    04:00 +22°C° 0 mm 3 mps 722 mmHg 96%
    05:00 +22°C° 0 mm 3 mps 722 mmHg 96%
    06:00 +21°C° 0 mm 3 mps 722 mmHg 97%
    07:00 +24°C° 0 mm 3 mps 723 mmHg 91%
    08:00 +25°C° 0 mm 4 mps 724 mmHg 86%
    09:00 +27°C° 0 mm 4 mps 724 mmHg 80%
    10:00 +28°C° 0.3 mm 4 mps 724 mmHg 76%
    11:00 +30°C° 0.3 mm 4 mps 724 mmHg 72%
    12:00 +31°C° 0.3 mm 3 mps 724 mmHg 68%
    13:00 +31°C° 0.6 mm 3 mps 723 mmHg 68%
    14:00 +31°C° 0.6 mm 3 mps 723 mmHg 69%
    15:00 +31°C° 0.6 mm 3 mps 722 mmHg 70%
    16:00 +31°C° 0.5 mm 2 mps 722 mmHg 72%
    17:00 +30°C° 0.5 mm 2 mps 722 mmHg 75%
    18:00 +29°C° 0.5 mm 2 mps 722 mmHg 77%
    19:00 +28°C° 0.2 mm 2 mps 722 mmHg 82%
    20:00 +26°C° 0.2 mm 2 mps 723 mmHg 87%
    21:00 +25°C° 0.2 mm 2 mps 723 mmHg 92%
    22:00 +25°C° 0.1 mm 2 mps 723 mmHg 90%
    23:00 +24°C° 0.1 mm 3 mps 723 mmHg 88%

    26 January, Saturday

    Time Temperature Precipitation Wind Pressure Humidity
    00:00 +24°C° 0.1 mm 3 mps 723 mmHg 87%
    01:00 +24°C° 0 mm 3 mps 723 mmHg 87%
    02:00 +22°C° 0 mm 3 mps 722 mmHg 88%
    03:00 +22°C° 0 mm 3 mps 722 mmHg 88%
    04:00 +21°C° 0 mm 3 mps 722 mmHg 90%
    05:00 +21°C° 0 mm 3 mps 722 mmHg 92%
    06:00 +20°C° 0 mm 3 mps 723 mmHg 94%
    07:00 +22°C° 0 mm 3 mps 723 mmHg 88%
    08:00 +24°C° 0 mm 3 mps 724 mmHg 83%
    09:00 +26°C° 0 mm 3 mps 725 mmHg 77%
    10:00 +27°C° 0.2 mm 3 mps 725 mmHg 72%
    11:00 +29°C° 0.2 mm 3 mps 725 mmHg 68%
    12:00 +30°C° 0.2 mm 3 mps 725 mmHg 63%
    13:00 +31°C° 0 mm 3 mps 724 mmHg 60%
    14:00 +31°C° 0 mm 3 mps 723 mmHg 58%
    15:00 +33°C° 0 mm 3 mps 723 mmHg 56%
    16:00 +31°C° 0.2 mm 3 mps 723 mmHg 61%
    17:00 +30°C° 0.2 mm 3 mps 723 mmHg 67%
    18:00 +29°C° 0.2 mm 3 mps 722 mmHg 72%
    19:00 +27°C° 0 mm 3 mps 723 mmHg 78%
    20:00 +25°C° 0 mm 2 mps 723 mmHg 83%
    21:00 +24°C° 0 mm 2 mps 724 mmHg 89%
    22:00 +23°C° 0 mm 2 mps 724 mmHg 90%
    23:00 +23°C° 0 mm 2 mps 724 mmHg 91%

    27 January, Sunday

    Time Temperature Precipitation Wind Pressure Humidity
    00:00 +21°C° 0 mm 2 mps 724 mmHg 92%
    01:00 +21°C° 0 mm 2 mps 724 mmHg 92%
    02:00 +21°C° 0 mm 3 mps 723 mmHg 92%
    03:00 +21°C° 0 mm 3 mps 723 mmHg 91%
    04:00 +20°C° 0 mm 3 mps 723 mmHg 91%
    05:00 +20°C° 0 mm 3 mps 723 mmHg 90%
    06:00 +20°C° 0 mm 3 mps 723 mmHg 90%
    07:00 +22°C° 0 mm 4 mps 724 mmHg 84%
    08:00 +23°C° 0 mm 4 mps 725 mmHg 77%
    09:00 +26°C° 0 mm 5 mps 725 mmHg 70%
    10:00 +27°C° 0.5 mm 4 mps 725 mmHg 71%
    11:00 +28°C° 0.5 mm 4 mps 725 mmHg 71%
    12:00 +29°C° 0.5 mm 4 mps 725 mmHg 71%
    13:00 +29°C° 0.9 mm 4 mps 725 mmHg 71%
    14:00 +29°C° 0.9 mm 3 mps 724 mmHg 72%
    15:00 +29°C° 0.9 mm 3 mps 724 mmHg 72%
    16:00 +29°C° 0.2 mm 3 mps 724 mmHg 73%
    17:00 +28°C° 0.2 mm 3 mps 723 mmHg 74%
    18:00 +28°C° 0.2 mm 3 mps 723 mmHg 75%
    19:00 +26°C° 0.4 mm 3 mps 724 mmHg 81%
    20:00 +25°C° 0.4 mm 2 mps 724 mmHg 87%
    21:00 +23°C° 0.4 mm 2 mps 724 mmHg 93%
    22:00 +23°C° 0.2 mm 2 mps 724 mmHg 93%
    23:00 +23°C° 0.2 mm 2 mps 725 mmHg 93%
    Show more